Location: Austin
(30.3000°N, 97.7500°W)
Time: 00:50:17
(UTC-05:00)

SPOT 5 - Pass Details

Date: 15 May 2024
Orbit: 620 x 810 km, 98.1° (Epoch: 29 May)

Event Time Altitude Azimuth Distance (km) Brightness Sun altitude
Exits shadow 21:48:33 27° 92° (E) 1,363 3.8 -17.8°
Maximum altitude 21:49:27 29° 73° (ENE) 1,299 3.9 -17.9°
Drops below altitude 10° 21:53:28 10° 14° (NNE) 2,140 5.6 -18.6°
Sets 21:55:53 0° 3° (N) 3,027 6.6 -19.0°
